Location: La Oliva
(42.2466°N, 2.9955°E)
Time: 07:12:45
(UTC+00:00)

Cosmos 1655 Rocket - Pass Details

Date: 22 April 2021
Orbit: 970 x 1007 km, 82.9° (Epoch: 07 May)

Event Time Altitude Azimuth Distance (km) Brightness Sun altitude
Rises 20:38:23 0° 350° (N) 3,698 7.8 -20.3°
Reaches altitude 10° 20:40:55 10° 349° (N) 2,741 7.1 -20.7°
Maximum altitude 20:47:11 75° 265° (W) 1,009 4.1 -21.5°
Enters shadow 20:50:54 26° 185° (S) 1,825 5.1 -22.1°
